SCP
0 0 0 0 0 0 0 0 0 0 0 0 0 0 0 0 0 0 0 0 0 0 0 0 0 0 0 0 0 0 0 0 0 0 0 0 0 0
0 0 0 0 0 0 0 0 0 0 0 0 0 0 0 0 0 0 0 0 0 0 0 0 0 0 0 0 0 0 0 0 0 0 0 0 0 0
0 0 0 0 0 0 0 0 0 0 0 0 0 0 0 0 0 0 0 0 0 0 0 0 0 0 0 0 0 0 0 0 0 0 0 0 0 0
0 0 0 0 0 0 0 0 0 0 0 0 0 0 0 0 0 0 0 0 0 0 0 0 0 0 0 0 0 0 0 0 0 0 0 0 0 0
0 0 0 0 0 0 0 0 0 0 0 0 0 0 0 0 0 0 0 0 0 0 0 0 0 0 0 0 0 0 0 0 0 -0 0 0 0 0
0 0 0 0 0 0 0 0 0 0 0 0 0 0 0 0 0 0 0 0 0 0 0 0 0 0 0 0 0 0 0 0 -0 0 0 0 0 0
0 0 0 0 0 0 0 0 0 0 0 0 0 0 0 0 0 0 0 0 0 0 0 0 0 0 0 0 0 0 0 -0 0 0 0 0 0 0
0 0 0 0 0 0 0 0 0 0 0 0 0 0 0 0 0 0 0 0 0 0 0 0 0 0 0 0 0 0 0 0 0 0 0 0 0 0
0 0 0 0 0 0 0 0 0 0 0 0 0 0 0 0 0 0 0 0 0 0 0 0 0 0 0 0 0 -0 -0 0 0 0 0 0 0 0
0 0 0 0 0 0 0 0 0 0 0 0 0 0 0 0 0 0 0 0 0 0 0 0 0 0 0 0 -0 -0 0 0 0 0 0 0 0 0
0 0 0 0 0 0 0 0 0 0 0 0 0 0 0 0 0 0 0 0 0 0 0 0 0 0 0 0 -0 0 0 0 0 0 0 0 0 0
0 0 0 0 0 0 0 0 0 0 0 0 0 0 0 0 0 0 0 0 0 0 0 0 0 0 -0 0 0 0 0 0 0 0 0 0 0 0
0 0 0 0 0 0 0 0 0 0 0 0 0 0 0 0 0 0 0 0 0 0 0 0 0 0 0 0 0 0 0 0 0 0 0 0 0 0
0 0 0 0 0 0 0 0 0 0 0 0 0 0 0 0 0 0 0 0 0 0 0 0 0 0 0 0 0 0 0 0 0 0 0 0 0 0
0 0 0 0 0 0 0 0 0 0 0 0 0 0 0 0 0 0 0 0 0 0 0 0 0 0 0 0 0 0 0 0 0 0 0 0 0 0
0 0 0 0 0 0 0 0 0 0 0 0 0 0 0 0 0 0 0 0 0 0 0 0 0 0 0 0 0 0 0 0 0 0 0 0 0 0
0 0 0 0 0 0 0 0 0 0 0 0 0 0 0 0 0 0 0 0 0 0 0 0 0 0 0 0 0 0 0 0 0 0 0 0 0 0
0 0 0 0 0 0 0 0 0 0 0 0 0 0 0 0 0 0 0 0 0 0 0 0 0 0 0 0 0 0 0 0 0 0 0 0 0 0
0 0 0 0 0 0 0 0 0 0 0 0 0 0 0 0 0 0 0 0 0 0 0 0 0 0 0 0 0 0 0 0 0 0 0 0 0 0
0 0 0 0 0 0 0 0 0 0 0 0 0 0 0 0 0 0 0 0 0 0 0 0 0 0 0 0 0 0 0 0 0 0 0 0 0 -0
0 0 0 0 0 0 0 0 0 0 0 0 0 0 0 0 0 0 0 0 0 0 0 0 0 0 0 0 0 0 0 0 0 0 0 0 0 0
0 0 0 0 0 0 0 0 0 0 0 0 0 0 0 0 0 0 0 0 0 0 0 0 0 0 0 0 0 0 0 0 0 0 0 0 -0 0
0 0 0 0 0 0 0 0 0 0 0 0 0 0 0 0 0 0 0 0 0 0 0 0 0 0 0 0 0 0 0 0 0 0 0 0 0 0
Wind_Speed_500mb
34 24 16 18 15 15 15 16 14 11 17 24 28 35 42 50 52 51 53 60 57 58 59 56 45 44 40 38 40 40 42 42 45 47 50 53 56 58
26 25 23 20 17 14 12 9 7 9 12 21 29 37 43 48 50 53 58 58 60 58 58 52 43 38 35 37 40 40 39 41 44 46 49 55 59 62
32 26 23 19 14 8 1 7 10 13 17 24 29 37 43 45 50 54 57 59 62 62 57 48 40 35 38 42 40 38 39 42 44 44 51 58 61 65
30 25 19 13 5 2 9 15 19 20 23 28 33 37 41 47 53 58 60 60 60 63 59 55 45 42 45 45 42 40 43 45 46 44 55 60 64 68
25 20 12 7 3 8 14 18 21 24 28 33 38 42 48 53 62 63 67 66 64 62 63 47 42 48 46 46 41 41 45 49 46 50 58 63 67 71
18 14 7 1 8 12 16 19 22 27 32 35 39 45 52 58 64 71 77 75 73 62 53 42 52 53 51 45 40 43 49 51 49 55 60 65 70 76
14 7 2 7 14 16 19 23 27 30 34 39 45 53 58 64 66 70 77 81 82 66 65 69 72 65 56 48 44 48 53 51 54 57 61 68 76 78
8 2 7 12 14 19 22 25 28 29 37 44 49 55 58 59 66 72 75 79 82 71 84 84 75 74 66 60 58 56 56 53 52 57 65 73 76 79
6 7 8 14 17 19 24 26 28 32 37 41 48 48 53 59 67 73 74 76 76 78 79 91 77 78 73 76 76 64 45 50 56 63 70 71 75 78
3 9 13 17 22 26 31 33 37 39 42 44 45 48 53 60 63 66 69 74 78 74 67 85 75 82 87 89 80 60 58 58 71 77 70 71 73 76
6 12 16 17 26 31 34 39 43 46 46 43 46 51 55 57 56 63 64 68 79 81 74 61 86 96 98 93 79 71 83 90 88 82 74 70 72 72
10 13 21 23 28 27 36 42 47 52 54 56 57 55 54 55 55 55 58 60 62 77 63 75 83 81 99 102 89 99 103 99 96 92 83 76 64 73
10 14 18 22 28 31 36 43 44 55 55 58 61 62 61 60 58 54 54 58 62 70 64 64 80 80 75 95 110 112 106 108 105 100 80 69 74 67
10 15 21 25 29 33 38 41 47 52 58 64 66 66 66 65 65 62 59 59 58 65 63 58 73 72 79 94 110 117 110 109 105 98 82 84 81 79
16 19 24 29 34 36 41 49 56 61 67 70 71 70 67 68 67 66 64 62 62 59 57 57 63 71 75 86 99 108 108 113 93 91 86 92 88 89
17 21 27 33 42 50 52 53 58 62 67 71 75 75 74 74 73 69 75 73 78 72 57 55 59 66 79 81 86 101 98 99 98 90 94 94 88 91
21 28 33 38 41 46 49 52 56 60 66 70 74 78 80 81 80 76 77 79 83 88 85 71 67 71 76 79 88 84 89 89 87 98 100 105 98 98
30 35 41 46 51 58 62 66 66 69 71 74 76 76 79 80 82 80 78 80 86 87 87 80 81 87 92 89 68 73 84 86 98 97 95 101 111 103
34 38 45 52 57 61 66 70 76 76 75 75 76 75 76 77 77 78 78 79 84 85 84 80 77 77 88 102 83 58 62 92 91 92 91 97 109 114
41 46 50 55 60 66 68 73 78 81 80 78 76 73 72 74 76 76 76 77 79 82 83 76 71 67 73 85 94 104 82 84 81 87 91 99 105 100
42 48 55 60 64 68 71 75 80 82 81 80 77 75 72 72 77 77 79 80 78 78 83 79 70 64 69 75 88 96 87 70 69 71 80 92 104 108
50 55 59 62 67 70 73 78 84 85 83 81 78 75 71 72 75 78 78 80 78 76 81 79 74 70 71 74 86 92 92 82 66 68 82 69 73 78
55 60 65 67 68 71 75 80 85 85 82 79 77 75 73 74 74 75 74 72 73 78 77 80 76 72 75 76 81 87 88 85 88 98 96 96 73 71
Wind_Direction_500mb
133 133 164 173 165 176 185 208 237 256 260 271 278 288 293 298 303 308 311 314 315 315 315 316 319 316 316 315 317 320 319 319 319 318 318 320 318 318
137 160 161 161 166 172 184 207 250 270 266 282 281 282 291 300 305 307 310 312 315 319 317 316 315 313 312 314 316 316 315 316 316 317 318 317 316 314
151 159 165 164 174 178 245 306 306 304 297 289 287 294 299 302 305 308 312 317 321 320 317 313 311 308 309 312 313 314 314 313 315 315 317 316 315 314
156 159 164 161 159 290 321 322 323 316 309 302 302 305 306 310 311 315 317 319 319 319 319 314 302 303 311 310 315 313 313 313 313 314 317 315 313 313
161 153 152 174 262 327 323 318 320 313 308 310 314 316 315 315 316 317 318 321 324 321 315 309 304 307 310 307 310 312 314 313 311 313 313 313 312 311
152 157 155 240 312 320 317 310 314 317 319 318 316 314 316 320 321 322 321 322 323 325 317 311 309 310 312 306 309 312 311 311 309 308 311 309 310 311
161 165 154 308 296 302 321 324 321 323 320 321 319 320 324 323 322 323 321 323 324 329 322 321 318 317 316 310 311 315 316 307 304 306 307 309 310 311
161 173 261 284 322 328 320 321 325 325 319 320 321 320 322 321 321 319 320 321 321 326 318 315 318 315 316 314 315 322 317 305 304 307 308 308 309 309
190 256 303 321 323 318 320 323 321 317 315 317 318 317 315 319 319 317 315 314 314 317 317 314 319 313 315 314 319 326 321 311 311 310 309 307 308 307
304 320 315 323 319 322 324 322 323 324 324 324 318 319 316 316 312 310 312 313 313 314 317 313 319 314 315 317 320 320 321 317 317 315 310 309 307 306
309 310 309 323 325 317 321 329 329 324 322 321 319 319 316 314 313 311 314 314 316 319 324 315 320 317 318 317 319 318 322 324 323 321 315 310 308 306
299 302 328 325 324 331 324 328 324 324 329 327 323 322 321 321 317 315 316 314 316 316 321 317 316 323 320 316 315 317 323 324 324 324 324 315 313 306
313 314 314 326 331 329 320 328 323 322 327 323 323 326 324 321 319 318 316 314 312 307 321 314 310 313 308 309 311 315 320 322 323 322 324 318 318 310
310 331 337 331 332 332 330 325 322 324 325 326 323 323 320 319 320 319 314 309 306 307 313 309 302 308 307 306 306 313 318 318 322 321 323 320 318 316
344 338 339 340 335 333 332 330 330 326 323 321 319 318 318 317 317 316 313 310 306 308 307 306 305 306 302 301 304 308 314 317 318 318 323 319 320 320
345 345 341 340 339 337 333 328 323 320 319 318 315 316 315 315 315 314 312 314 311 311 311 310 306 303 302 302 304 306 313 307 316 320 322 319 322 324
351 348 342 337 330 325 324 322 319 316 315 315 315 316 316 315 315 315 314 313 310 312 314 316 311 306 304 305 304 308 312 310 319 321 323 317 320 322
348 342 337 331 330 329 326 323 321 320 319 318 317 316 316 316 315 315 314 313 310 311 311 315 315 313 313 313 309 312 313 314 320 318 318 316 319 326
338 334 332 330 328 325 324 323 321 321 321 320 319 320 318 316 316 318 320 317 315 313 312 313 313 314 313 309 312 311 306 313 317 320 323 320 316 323
330 330 327 325 326 324 323 321 321 321 323 323 323 321 318 317 317 319 320 320 321 321 319 320 320 319 311 308 307 310 319 320 316 314 322 323 321 323
325 325 324 325 325 323 322 322 321 322 324 323 321 319 318 317 317 318 319 320 321 322 321 325 329 324 315 310 307 316 321 326 321 311 314 312 314 314
325 323 323 324 324 322 322 322 322 323 323 321 318 317 317 317 317 318 320 320 322 321 321 324 329 328 323 319 317 319 323 327 333 328 331 310 295 294
323 322 323 323 322 321 322 321 321 320 320 318 316 316 317 317 319 318 319 320 320 320 324 325 328 330 326 325 322 323 324 327 333 333 335 342 322 307
Wind_Speed_850mb
34 24 16 18 15 15 15 16 14 11 17 24 28 35 42 50 52 51 53 60 57 58 59 56 45 44 40 38 40 40 42 42 45 47 50 53 56 58
26 25 23 20 17 14 12 9 7 9 12 21 29 37 43 48 50 53 58 58 60 58 58 52 43 38 35 37 40 40 39 41 44 46 49 55 59 62
32 26 23 19 14 8 1 7 10 13 17 24 29 37 43 45 50 54 57 59 62 62 57 48 40 35 38 42 40 38 39 42 44 44 51 58 61 65
30 25 19 13 5 2 9 15 19 20 23 28 33 37 41 47 53 58 60 60 60 63 59 55 45 42 45 45 42 40 43 45 46 44 55 60 64 68
25 20 12 7 3 8 14 18 21 24 28 33 38 42 48 53 62 63 67 66 64 62 63 47 42 48 46 46 41 41 45 49 46 50 58 63 67 71
18 14 7 1 8 12 16 19 22 27 32 35 39 45 52 58 64 71 77 75 73 62 53 42 52 53 51 45 40 43 49 51 49 55 60 65 70 76
14 7 2 7 14 16 19 23 27 30 34 39 45 53 58 64 66 70 77 81 82 66 65 69 72 65 56 48 44 48 53 51 54 57 61 68 76 78
8 2 7 12 14 19 22 25 28 29 37 44 49 55 58 59 66 72 75 79 82 71 84 84 75 74 66 60 58 56 56 53 52 57 65 73 76 79
6 7 8 14 17 19 24 26 28 32 37 41 48 48 53 59 67 73 74 76 76 78 79 91 77 78 73 76 76 64 45 50 56 63 70 71 75 78
3 9 13 17 22 26 31 33 37 39 42 44 45 48 53 60 63 66 69 74 78 74 67 85 75 82 87 89 80 60 58 58 71 77 70 71 73 76
6 12 16 17 26 31 34 39 43 46 46 43 46 51 55 57 56 63 64 68 79 81 74 61 86 96 98 93 79 71 83 90 88 82 74 70 72 72
10 13 21 23 28 27 36 42 47 52 54 56 57 55 54 55 55 55 58 60 62 77 63 75 83 81 99 102 89 99 103 99 96 92 83 76 64 73
10 14 18 22 28 31 36 43 44 55 55 58 61 62 61 60 58 54 54 58 62 70 64 64 80 80 75 95 110 112 106 108 105 100 80 69 74 67
10 15 21 25 29 33 38 41 47 52 58 64 66 66 66 65 65 62 59 59 58 65 63 58 73 72 79 94 110 117 110 109 105 98 82 84 81 79
16 19 24 29 34 36 41 49 56 61 67 70 71 70 67 68 67 66 64 62 62 59 57 57 63 71 75 86 99 108 108 113 93 91 86 92 88 89
17 21 27 33 42 50 52 53 58 62 67 71 75 75 74 74 73 69 75 73 78 72 57 55 59 66 79 81 86 101 98 99 98 90 94 94 88 91
21 28 33 38 41 46 49 52 56 60 66 70 74 78 80 81 80 76 77 79 83 88 85 71 67 71 76 79 88 84 89 89 87 98 100 105 98 98
30 35 41 46 51 58 62 66 66 69 71 74 76 76 79 80 82 80 78 80 86 87 87 80 81 87 92 89 68 73 84 86 98 97 95 101 111 103
34 38 45 52 57 61 66 70 76 76 75 75 76 75 76 77 77 78 78 79 84 85 84 80 77 77 88 102 83 58 62 92 91 92 91 97 109 114
41 46 50 55 60 66 68 73 78 81 80 78 76 73 72 74 76 76 76 77 79 82 83 76 71 67 73 85 94 104 82 84 81 87 91 99 105 100
42 48 55 60 64 68 71 75 80 82 81 80 77 75 72 72 77 77 79 80 78 78 83 79 70 64 69 75 88 96 87 70 69 71 80 92 104 108
50 55 59 62 67 70 73 78 84 85 83 81 78 75 71 72 75 78 78 80 78 76 81 79 74 70 71 74 86 92 92 82 66 68 82 69 73 78
55 60 65 67 68 71 75 80 85 85 82 79 77 75 73 74 74 75 74 72 73 78 77 80 76 72 75 76 81 87 88 85 88 98 96 96 73 71
Wind_Direction_850mb
133 133 164 173 165 176 185 208 237 256 260 271 278 288 293 298 303 308 311 314 315 315 315 316 319 316 316 315 317 320 319 319 319 318 318 320 318 318
137 160 161 161 166 172 184 207 250 270 266 282 281 282 291 300 305 307 310 312 315 319 317 316 315 313 312 314 316 316 315 316 316 317 318 317 316 314
151 159 165 164 174 178 245 306 306 304 297 289 287 294 299 302 305 308 312 317 321 320 317 313 311 308 309 312 313 314 314 313 315 315 317 316 315 314
156 159 164 161 159 290 321 322 323 316 309 302 302 305 306 310 311 315 317 319 319 319 319 314 302 303 311 310 315 313 313 313 313 314 317 315 313 313
161 153 152 174 262 327 323 318 320 313 308 310 314 316 315 315 316 317 318 321 324 321 315 309 304 307 310 307 310 312 314 313 311 313 313 313 312 311
152 157 155 240 312 320 317 310 314 317 319 318 316 314 316 320 321 322 321 322 323 325 317 311 309 310 312 306 309 312 311 311 309 308 311 309 310 311
161 165 154 308 296 302 321 324 321 323 320 321 319 320 324 323 322 323 321 323 324 329 322 321 318 317 316 310 311 315 316 307 304 306 307 309 310 311
161 173 261 284 322 328 320 321 325 325 319 320 321 320 322 321 321 319 320 321 321 326 318 315 318 315 316 314 315 322 317 305 304 307 308 308 309 309
190 256 303 321 323 318 320 323 321 317 315 317 318 317 315 319 319 317 315 314 314 317 317 314 319 313 315 314 319 326 321 311 311 310 309 307 308 307
304 320 315 323 319 322 324 322 323 324 324 324 318 319 316 316 312 310 312 313 313 314 317 313 319 314 315 317 320 320 321 317 317 315 310 309 307 306
309 310 309 323 325 317 321 329 329 324 322 321 319 319 316 314 313 311 314 314 316 319 324 315 320 317 318 317 319 318 322 324 323 321 315 310 308 306
299 302 328 325 324 331 324 328 324 324 329 327 323 322 321 321 317 315 316 314 316 316 321 317 316 323 320 316 315 317 323 324 324 324 324 315 313 306
313 314 314 326 331 329 320 328 323 322 327 323 323 326 324 321 319 318 316 314 312 307 321 314 310 313 308 309 311 315 320 322 323 322 324 318 318 310
310 331 337 331 332 332 330 325 322 324 325 326 323 323 320 319 320 319 314 309 306 307 313 309 302 308 307 306 306 313 318 318 322 321 323 320 318 316
344 338 339 340 335 333 332 330 330 326 323 321 319 318 318 317 317 316 313 310 306 308 307 306 305 306 302 301 304 308 314 317 318 318 323 319 320 320
345 345 341 340 339 337 333 328 323 320 319 318 315 316 315 315 315 314 312 314 311 311 311 310 306 303 302 302 304 306 313 307 316 320 322 319 322 324
351 348 342 337 330 325 324 322 319 316 315 315 315 316 316 315 315 315 314 313 310 312 314 316 311 306 304 305 304 308 312 310 319 321 323 317 320 322
348 342 337 331 330 329 326 323 321 320 319 318 317 316 316 316 315 315 314 313 310 311 311 315 315 313 313 313 309 312 313 314 320 318 318 316 319 326
338 334 332 330 328 325 324 323 321 321 321 320 319 320 318 316 316 318 320 317 315 313 312 313 313 314 313 309 312 311 306 313 317 320 323 320 316 323
330 330 327 325 326 324 323 321 321 321 323 323 323 321 318 317 317 319 320 320 321 321 319 320 320 319 311 308 307 310 319 320 316 314 322 323 321 323
325 325 324 325 325 323 322 322 321 322 324 323 321 319 318 317 317 318 319 320 321 322 321 325 329 324 315 310 307 316 321 326 321 311 314 312 314 314
325 323 323 324 324 322 322 322 322 323 323 321 318 317 317 317 317 318 320 320 322 321 321 324 329 328 323 319 317 319 323 327 333 328 331 310 295 294
323 322 323 323 322 321 322 321 321 320 320 318 316 316 317 317 319 318 319 320 320 320 324 325 328 330 326 325 322 323 324 327 333 333 335 342 322 307